Voltar ao catálogo

USA 364

AtivoMilitarVLEO
NORAD 59824·PAYLOAD·🇺🇸 United States

Lançado May 22, 2024 de Vandenberg Space Force Base

Loading…

Próximas Passagens (próximas 24 horas)

TLE

ObsoletoSource: Mike McCants

Época: Aug 13, 2026, 00:28 UTC

1 59824U 24096L   26225.01982443 0.00000000  00000-0  00000-0 0    00
2 59824  70.0227 184.3052 0004000 116.1869 243.8130 14.96713183    01

Acompanhe USA 364 em tempo real com AllMySat

Download on the App Store